Weather Roundup
Issued by NWS

Home | Current Version | Previous Version | Text Only | Print | Product List | Glossary On
Versions: 1 2 3 4 5 6 7 8 9 10 11 12 13 14 15 16 17 18 19 20 21 22 23 24 25 26 27 28 29 30 31 32 33 34 35 36 37 38 39 40 41 42 43 44 45 46 47 48 49 50
347
NZUS93 KARX 061210
HRRWXR

CURRENT HOURLY OBSERVATIONS ACROSS
MUCH OF THE UPPER MISSISSIPPI VALLEY
NATIONAL WEATHER SERVICE LA CROSSE WI
600 AM CST SAT FEB 06 2016


...SOUTHEAST MINNESOTA...


CITY           SKY/WX    TMP DP  RH WIND       PRES   REMARKS
ROCHESTER      CLOUDY    25  22  88 SW10      30.14F WCI  15
ROCHESTER/MAYO CLOUDY    27  24  91 W10       30.14F WCI  17
WINONA         CLOUDY    30  27  86 W3        30.19S
AUSTIN         CLOUDY    27  25  93 SW7       30.16F WCI  19
ALBERT LEA     CLOUDY    27  25  93 SW6       30.16F FOG     WCI  20
DODGE CENTER   CLOUDY    25  21  86 W13       30.14F WCI  13
PRESTON        CLOUDY    25  23  92 W10       30.17S FOG     WCI  15
OWATONNA       CLOUDY    27  21  80 SW7       30.16R WCI  19
FARIBAULT      CLOUDY    27  23  86 S5        30.15S WCI  21
$$

...ELSEWHERE IN MINNESOTA...


CITY           SKY/WX    TMP DP  RH WIND       PRES   REMARKS
MINNEAPOLIS    CLOUDY    26  21  81 S7        30.14S WCI  18
INTNL FALLS    MOCLDY    17  14  88 CALM      29.96F FOG
DULUTH         PTCLDY    18  14  84 W9        30.02S WCI   7
RED WING       CLOUDY    27  21  80 W7        30.15S WCI  19
REDWOOD FALLS  CLOUDY    19  16  88 S10       30.10F WCI   7
MANKATO        CLOUDY    25  21  86 SW12      30.15S WCI  14
WORTHINGTON    CLOUDY    19  18  93 SW10      30.14F VSB 1/2 WCI   8
FAIRMONT       CLOUDY    25  19  80 SW8       30.15F VSB 1/2 WCI  16
$$

...SOUTHWEST WISCONSIN...


CITY           SKY/WX    TMP DP  RH WIND       PRES   REMARKS
LA CROSSE      CLOUDY    28  23  81 W7        30.19F WCI  21
PRAIRIE DU CHI CLOUDY    29  24  81 SW5       30.23S WCI  24
BOSCOBEL       CLOUDY    29  24  82 SW6       30.22S WCI  23
LONE ROCK      CLOUDY    28  21  75 W5        30.21F WCI  23
PLATTEVILLE    CLOUDY    28  24  86 SW8       30.21S WCI  19
FORT MC COY    CLOUDY    27  25  93 W5        30.19S WCI  21
CAMP DOUGLAS   CLOUDY    26  26 100 W8        30.16F WCI  18
VIROQUA        CLOUDY    26  26 100 SW9       30.16F WCI  16
WIS DELLS      CLOUDY    27  20  77 SW10      30.18S WCI  17
$$

...ELSEWHERE IN WISCONSIN...


CITY           SKY/WX    TMP DP  RH WIND       PRES   REMARKS
MILWAUKEE      PTCLDY    27  20  75 SW9       30.21F WCI  18
MADISON        MOCLDY    27  20  75 SW6       30.20S WCI  20
GREEN BAY      CLOUDY    26  20  77 SW10      30.16R WCI  16
EAU CLAIRE     CLOUDY    25  21  85 SW7       30.13S WCI  17
BLACK RVR FLS  CLOUDY    27  26  98 W12       30.16S FOG     WCI  17
MEDFORD        CLOUDY    22  22  99 W8        30.08S FOG     WCI  12
WAUSAU         CLOUDY    24  21  88 W10       30.10S WCI  14
WIS RAPIDS     CLOUDY    25  21  85 W7        30.16F WCI  17
MARSHFIELD     CLOUDY    24  20  84 SW9       30.11S FOG     WCI  14
RICE LAKE      CLOUDY    25  21  85 SW8       30.13R WCI  16
$$

...NORTHEAST IOWA...


CITY           SKY/WX    TMP DP  RH WIND       PRES   REMARKS
WATERLOO       CLOUDY    29  27  92 SW8       30.22R FOG     WCI  21
DUBUQUE        CLOUDY    27  23  85 SW8       30.22R WCI  19
DECORAH        CLOUDY    27  27 100 VRB6G14   30.18S FOG     WCI  20
MASON CITY     CLOUDY    26  24  92 W9        30.20S WCI  17
CHARLES CITY   CLOUDY    28  28 100 W14       30.20S FOG     WCI  17
OELWEIN        CLOUDY    28  28 100 W10       30.21S FOG     WCI  19
$$

...ELSEWHERE IN IOWA...


CITY           SKY/WX    TMP DP  RH WIND       PRES   REMARKS
DES MOINES     CLOUDY    29  25  85 W3        30.24R
IOWA CITY      PTCLDY    26  22  84 CALM      30.27S
FORT DODGE     CLOUDY    27  23  86 W6        30.22S WCI  20
MARSHALLTOWN   CLOUDY    30  27  88 W10       30.22S WCI  21
CEDAR RAPIDS   CLOUDY    29  25  85 S5        30.23S WCI  24
$$

...NORTHERN ILLINOIS...


CITY           SKY/WX    TMP DP  RH WIND       PRES   REMARKS
CHICAGO-OHARE  PTCLDY    25  21  85 SW6       30.26F WCI  18
CHICAGO-MIDWAY MOCLDY    28  21  75 SW6       30.28F WCI  22
MOLINE         CLOUDY    30  23  75 CALM      30.26F
ROCKFORD       CLEAR     25  21  85 S6        30.27F WCI  18
PEORIA         MOCLDY    26  22  84 S3        30.30S
$$

NOTE: "FAIR" INDICATES FEW OR NO CLOUDS BELOW 12,000 FEET WITH NO
SIGNIFICANT WEATHER AND/OR OBSTRUCTIONS TO VISIBILITY. WIND
SPEEDS ARE IN MILES-PER-HOUR.




USA.gov is the U.S. government's official web portal to all federal, state and local government web resources and services.